Location: Kerguer�zec
(48.4509°N, 4.7600°W)
Time: 19:33:36
(UTC+00:00)

ISS - Pass Details

Date: 28 February 2021
Orbit: 418 x 422 km, 51.6° (Epoch: 12 April)

Event Time Altitude Azimuth Distance (km) Brightness Sun altitude
Exits shadow 06:07:50 14° 283° (WNW) 1,273 -2.0 -9.8°
Maximum altitude 06:10:31 47° 355° (N) 563 -3.2 -9.4°
Drops below altitude 10° 06:13:47 10° 72° (ENE) 1,502 0.4 -8.8°
Sets 06:15:56 0° 78° (ENE) 2,367 1.9 -8.5°
